Location: D�pe
(52.6057°N, 8.1808°E)
Time: 06:46:49
(UTC+00:00)

SJ 16-02 - Pass Details

Date: 29 October 2020
Orbit: 605 x 617 km, 75.0° (Epoch: 01 December)

Event Time Altitude Azimuth Distance (km) Brightness Sun altitude
Rises 18:29:05 0° 341° (NNW) 2,898 5.1 -22.7°
Reaches altitude 10° 18:31:35 10° 352° (N) 1,990 4.1 -23.1°
Enters shadow 18:33:39 22° 14° (NNE) 1,368 3.0 -23.4°
